TimeCST,TemperatureF,Dew PointF,Humidity,Sea Level PressureIn,VisibilityMPH,Wind Direction,Wind SpeedMPH,Gust SpeedMPH,PrecipitationIn,Events,Conditions,WindDirDegrees,DateUTC
12:15 AM,66.2,62.8,89,29.85,10.0,SE,5.8,-,N/A,,Unknown,140,2012-12-07 06:15:00
12:35 AM,66.2,63.0,89,29.84,10.0,SE,5.8,-,N/A,,Unknown,140,2012-12-07 06:35:00
12:55 AM,65.8,63.0,90,29.84,10.0,SSE,5.8,-,N/A,,Unknown,150,2012-12-07 06:55:00
1:15 AM,66.2,63.5,91,29.83,10.0,SSE,5.8,-,N/A,,Unknown,150,2012-12-07 07:15:00
1:35 AM,66.2,63.5,91,29.83,10.0,SSE,5.8,-,N/A,,Unknown,150,2012-12-07 07:35:00
1:55 AM,66.2,63.5,91,29.83,10.0,SSE,4.6,-,N/A,,Unknown,150,2012-12-07 07:55:00
2:15 AM,66.6,63.9,91,29.83,10.0,SSE,5.8,-,N/A,,Unknown,150,2012-12-07 08:15:00
2:35 AM,66.6,63.7,90,29.82,10.0,SSE,5.8,-,N/A,,Unknown,160,2012-12-07 08:35:00
2:55 AM,66.2,63.5,91,29.82,10.0,SSE,5.8,-,N/A,,Unknown,160,2012-12-07 08:55:00
3:15 AM,66.2,63.3,90,29.81,10.0,SSE,5.8,-,N/A,,Unknown,160,2012-12-07 09:15:00
3:35 AM,65.8,63.1,91,29.82,10.0,SSE,5.8,-,N/A,,Unknown,160,2012-12-07 09:35:00
3:55 AM,65.5,62.8,91,29.81,10.0,SSE,4.6,-,N/A,,Unknown,150,2012-12-07 09:55:00
4:15 AM,65.3,62.6,91,29.81,7.0,SSE,4.6,-,N/A,,Unknown,150,2012-12-07 10:15:00
4:35 AM,64.6,62.1,92,29.81,7.0,SSE,4.6,-,N/A,,Unknown,150,2012-12-07 10:35:00
4:55 AM,64.6,62.2,92,29.81,7.0,SE,3.5,-,N/A,,Unknown,140,2012-12-07 10:55:00
5:15 AM,64.8,62.6,93,29.80,7.0,SE,4.6,-,N/A,,Unknown,140,2012-12-07 11:15:00
5:35 AM,64.9,62.8,93,29.80,7.0,SSE,5.8,-,N/A,,Unknown,150,2012-12-07 11:35:00
5:55 AM,64.8,62.6,93,29.81,7.0,SSE,4.6,-,N/A,,Unknown,160,2012-12-07 11:55:00
6:15 AM,64.8,62.6,93,29.81,5.0,SSE,4.6,-,N/A,,Mist,150,2012-12-07 12:15:00
6:35 AM,64.6,62.6,93,29.82,4.0,SSE,3.5,-,N/A,,Mist,150,2012-12-07 12:35:00
6:55 AM,64.6,62.6,93,29.83,0.8,SSE,4.6,-,N/A,,Mist,150,2012-12-07 12:55:00
7:15 AM,64.6,62.6,93,29.83,4.0,SE,3.5,-,N/A,,Mist,140,2012-12-07 13:15:00
7:35 AM,65.3,63.3,93,29.83,0.2,SSE,5.8,-,N/A,Fog,Fog,150,2012-12-07 13:35:00
7:55 AM,66.4,64.4,93,29.84,5.0,SSE,6.9,-,N/A,,Mist,160,2012-12-07 13:55:00
8:15 AM,67.1,64.8,92,29.85,7.0,South,8.1,-,N/A,,Unknown,170,2012-12-07 14:15:00
8:35 AM,67.6,64.9,91,29.85,7.0,SSE,8.1,-,N/A,,Unknown,160,2012-12-07 14:35:00
8:55 AM,69.4,66.2,89,29.86,5.0,South,8.1,-,N/A,,Mist,180,2012-12-07 14:55:00
9:15 AM,70.2,66.4,88,29.87,7.0,South,8.1,-,N/A,,Unknown,170,2012-12-07 15:15:00
9:35 AM,71.6,67.1,86,29.87,7.0,SSE,8.1,-,N/A,,Unknown,160,2012-12-07 15:35:00
9:55 AM,73.9,67.8,81,29.87,10.0,SSE,8.1,-,N/A,,Unknown,160,2012-12-07 15:55:00
10:15 AM,76.3,67.8,75,29.87,10.0,South,10.4,-,N/A,,Unknown,170,2012-12-07 16:15:00
10:35 AM,76.6,66.7,71,29.86,10.0,South,11.5,-,N/A,,Unknown,170,2012-12-07 16:35:00
10:55 AM,78.4,66.4,66,29.86,10.0,South,13.8,-,N/A,,Unknown,170,2012-12-07 16:55:00
11:15 AM,78.8,65.1,63,29.85,10.0,South,15.0,18.4,N/A,,Unknown,180,2012-12-07 17:15:00
11:35 AM,79.9,64.6,59,29.84,7.0,South,13.8,23.0,N/A,,Unknown,170,2012-12-07 17:35:00
11:55 AM,81.0,63.7,56,29.83,10.0,South,12.7,20.7,N/A,,Unknown,170,2012-12-07 17:55:00
12:15 PM,83.5,63.1,50,29.81,10.0,South,13.8,20.7,N/A,,Unknown,170,2012-12-07 18:15:00
12:35 PM,83.5,62.6,49,29.80,10.0,South,16.1,21.9,N/A,,Unknown,170,2012-12-07 18:35:00
12:55 PM,83.3,62.4,49,29.78,10.0,SSE,18.4,21.9,N/A,,Unknown,150,2012-12-07 18:55:00
1:15 PM,82.8,61.9,49,29.78,10.0,SSE,16.1,21.9,N/A,,Unknown,160,2012-12-07 19:15:00
1:35 PM,85.3,61.7,45,29.77,10.0,SSE,15.0,19.6,N/A,,Unknown,150,2012-12-07 19:35:00
1:55 PM,85.3,61.7,45,29.76,10.0,South,13.8,19.6,N/A,,Unknown,180,2012-12-07 19:55:00
2:15 PM,84.9,61.3,45,29.75,10.0,SE,12.7,20.7,N/A,,Unknown,140,2012-12-07 20:15:00
2:35 PM,85.1,61.2,44,29.75,10.0,SE,16.1,19.6,N/A,,Unknown,140,2012-12-07 20:35:00
2:55 PM,85.3,60.8,44,29.75,10.0,SSE,18.4,21.9,N/A,,Unknown,150,2012-12-07 20:55:00
3:15 PM,83.3,62.4,49,29.75,10.0,SE,15.0,20.7,N/A,,Unknown,140,2012-12-07 21:15:00
3:35 PM,82.8,62.4,50,29.75,10.0,SE,10.4,19.6,N/A,,Unknown,140,2012-12-07 21:35:00
3:55 PM,81.5,62.8,53,29.75,10.0,SSE,15.0,20.7,N/A,,Unknown,150,2012-12-07 21:55:00
4:15 PM,81.0,62.6,53,29.75,10.0,SSE,15.0,23.0,N/A,,Unknown,150,2012-12-07 22:15:00
4:35 PM,79.9,63.3,57,29.75,10.0,SSE,15.0,19.6,N/A,,Unknown,160,2012-12-07 22:35:00
4:55 PM,78.8,63.9,60,29.76,10.0,SSE,11.5,19.6,N/A,,Unknown,160,2012-12-07 22:55:00
5:15 PM,78.1,64.0,62,29.76,10.0,SSE,11.5,19.6,N/A,,Unknown,160,2012-12-07 23:15:00
5:35 PM,77.2,64.0,64,29.77,10.0,SSE,12.7,18.4,N/A,,Unknown,150,2012-12-07 23:35:00
5:55 PM,76.6,64.4,66,29.77,10.0,SSE,13.8,21.9,N/A,,Unknown,160,2012-12-07 23:55:00
6:15 PM,76.1,65.1,69,29.77,10.0,SSE,12.7,17.3,N/A,,Unknown,150,2012-12-08 00:15:00
6:35 PM,75.7,65.5,70,29.77,10.0,SSE,12.7,18.4,N/A,,Unknown,150,2012-12-08 00:35:00
6:55 PM,75.2,65.5,72,29.78,10.0,SSE,11.5,-,N/A,,Unknown,150,2012-12-08 00:55:00
7:15 PM,74.3,65.7,74,29.78,10.0,SE,9.2,-,N/A,,Unknown,140,2012-12-08 01:15:00
7:35 PM,74.3,66.2,76,29.79,10.0,SSE,9.2,-,N/A,,Unknown,150,2012-12-08 01:35:00
7:55 PM,74.3,66.2,76,29.80,10.0,SSE,6.9,-,N/A,,Unknown,150,2012-12-08 01:55:00
8:15 PM,73.6,66.2,78,29.81,10.0,SSE,8.1,-,N/A,,Unknown,160,2012-12-08 02:15:00
8:35 PM,72.9,66.2,80,29.81,10.0,SSE,8.1,-,N/A,,Unknown,150,2012-12-08 02:35:00
8:55 PM,72.5,66.2,81,29.82,10.0,SSE,6.9,-,N/A,,Unknown,150,2012-12-08 02:55:00
9:15 PM,72.0,66.2,82,29.82,10.0,SE,5.8,-,N/A,,Unknown,140,2012-12-08 03:15:00
9:35 PM,71.6,66.0,82,29.82,10.0,SE,5.8,-,N/A,,Unknown,140,2012-12-08 03:35:00
9:55 PM,70.9,66.2,85,29.83,10.0,SSE,4.6,-,N/A,,Unknown,150,2012-12-08 03:55:00
10:15 PM,70.7,66.0,85,29.83,10.0,SE,5.8,-,N/A,,Unknown,140,2012-12-08 04:15:00
10:35 PM,70.7,66.2,86,29.83,10.0,SSE,6.9,-,N/A,,Unknown,150,2012-12-08 04:35:00
10:55 PM,70.7,66.0,85,29.82,10.0,SE,5.8,-,N/A,,Unknown,140,2012-12-08 04:55:00
11:15 PM,70.3,65.8,86,29.81,10.0,SSE,6.9,-,N/A,,Unknown,150,2012-12-08 05:15:00
11:35 PM,70.3,65.8,86,29.82,10.0,SE,5.8,-,N/A,,Unknown,140,2012-12-08 05:35:00
11:55 PM,70.2,65.8,86,29.81,10.0,SE,5.8,-,N/A,,Unknown,140,2012-12-08 05:55:00